Wind_Speed
12 12 12 11 10 10 11 11 11 11 11 11 11 12 12 13 13 14 14 14 15 16 17 18 19 19 20 21 21 22 22 22 22 23 24 25 25 25 25 25 25 25 26
12 12 12 12 12 12 12 12 12 12 12 12 12 13 14 14 15 15 15 16 17 17 18 18 19 20 21 21 22 23 23 24 24 24 25 26 26 26 26 26 26 26 26
12 13 13 13 13 14 14 14 14 13 13 14 14 14 14 15 15 16 16 17 17 18 19 19 20 21 22 22 22 23 24 25 26 26 26 26 27 26 27 27 27 28 27
13 14 14 14 15 15 15 16 15 15 15 15 16 15 16 16 17 17 18 17 18 19 20 21 21 21 22 23 23 23 24 25 26 27 27 28 28 28 28 29 29 29 29
15 15 16 16 16 16 17 17 17 17 17 17 17 17 17 17 18 18 18 19 19 20 21 22 22 22 23 23 24 25 25 26 26 27 27 27 28 28 29 29 30 30 29
17 18 18 18 18 18 19 19 19 19 19 18 18 19 18 19 19 18 19 20 21 21 22 23 23 24 24 24 25 26 27 27 27 27 27 27 28 29 30 30 30 30 29
19 19 19 20 20 20 20 20 20 20 20 20 20 20 20 20 20 20 20 21 21 22 24 24 24 24 24 25 26 27 27 27 27 27 28 28 28 29 30 30 30 30 30
21 21 22 22 22 22 22 23 23 22 22 22 21 21 22 22 21 21 21 21 22 22 23 23 24 24 25 26 26 26 27 27 27 28 29 29 30 31 31 32 31 31 32
23 24 24 25 25 25 25 25 25 25 25 24 24 23 23 23 23 23 23 23 23 23 23 24 24 25 25 26 26 26 26 27 28 28 29 30 31 31 31 31 31 32 32
26 27 27 28 27 27 28 27 27 27 27 27 26 26 25 24 25 26 25 25 24 24 24 24 25 25 26 26 27 27 28 28 29 30 31 32 32 32 32 32 33 33 33
30 30 30 29 29 30 30 30 30 30 30 30 29 28 27 26 26 27 27 26 26 25 26 27 27 28 28 28 28 29 29 30 31 32 32 33 33 34 34 34 34 34 34
33 34 34 33 33 33 34 33 33 32 31 31 30 29 29 28 28 27 28 28 28 28 28 29 29 30 30 30 30 31 31 32 33 33 34 34 34 34 34 35 35 35 36
36 37 37 37 37 37 36 35 34 33 33 32 31 30 30 30 29 30 29 29 30 30 30 30 31 31 31 32 32 32 33 33 34 35 35 35 35 35 36 36 36 36 37
40 40 39 38 39 39 37 35 34 34 34 33 33 32 31 31 31 31 32 32 32 32 32 32 32 33 33 34 34 34 34 34 35 35 35 35 35 35 36 36 36 37 37
41 41 41 41 40 40 39 37 36 35 35 35 34 33 32 32 33 33 34 33 33 34 34 34 34 35 35 35 35 35 35 35 35 34 35 35 35 36 36 36 37 37 37
42 42 42 41 41 40 39 39 38 37 36 35 34 33 33 32 33 34 34 34 35 35 36 36 36 36 35 35 36 36 35 35 35 36 36 36 36 36 37 37 37 37 37
42 42 41 41 40 39 39 39 39 38 37 36 35 34 34 34 34 35 35 36 36 37 37 37 37 36 36 36 36 36 36 36 36 37 37 37 37 37 37 37 38 38 38
41 42 42 41 39 39 39 39 38 37 36 35 35 35 35 36 35 35 35 36 36 36 37 36 37 37 37 37 37 37 37 37 37 37 38 38 38 38 37 37 38 38 38
41 42 41 40 39 39 39 38 37 37 36 36 36 36 36 36 36 36 36 36 36 36 36 36 37 37 37 37 37 37 37 38 38 38 38 38 38 38 38 38 38 38 37
40 41 40 40 41 40 39 39 38 38 37 38 38 38 38 38 38 38 37 37 37 38 38 38 37 37 37 37 38 38 38 39 38 38 38 38 38 38 38 37 37 37 37
41 41 41 41 41 39 39 39 39 39 39 39 39 39 38 39 39 39 39 39 39 39 39 38 38 37 38 38 38 38 39 39 39 38 38 37 38 38 37 37 37 37 36
40 40 39 39 39 39 39 39 39 39 39 39 40 40 39 39 39 38 38 39 38 38 38 38 38 37 37 37 38 38 38 38 38 39 38 38 38 37 37 37 36 36 36
37 37 36 36 37 37 38 38 38 38 38 39 39 39 38 38 38 38 38 38 38 38 38 38 37 37 38 38 38 37 38 38 38 38 37 37 37 37 37 37 36 35 34
35 35 35 35 36 36 37 37 37 37 37 37 37 37 37 37 37 37 37 37 38 38 38 38 37 37 37 37 38 38 38 38 37 37 37 37 36 36 36 36 35 35 34
34 34 34 34 35 35 35 35 35 35 35 35 36 37 37 36 36 36 36 36 36 37 37 37 37 38 38 37 37 38 37 36 35 36 36 36 35 35 35 35 35 34 33
33 33 33 34 34 34 34 33 33 34 34 35 35 36 36 36 36 36 36 36 36 37 37 37 37 37 37 37 37 37 36 36 36 36 36 35 35 35 35 35 35 34 34
Wind_Direction
345 345 346 346 342 339 336 332 327 323 320 316 305 300 297 293 287 283 285 284 280 276 274 274 271 272 274 274 273 273 274 276 277 278 279 280 282 283 285 285 286 285 285
338 339 340 341 341 337 333 331 328 326 321 316 312 305 299 295 291 285 283 283 283 280 277 278 277 277 277 277 276 275 275 276 278 278 279 280 281 282 284 285 285 285 286
332 333 335 336 334 332 329 329 327 324 320 316 311 306 303 301 295 287 283 283 282 280 278 278 279 278 276 277 278 278 278 277 278 279 278 279 280 281 281 283 284 286 287
326 328 330 330 329 328 326 325 325 324 321 319 314 309 303 300 297 290 284 283 284 281 279 279 280 280 277 277 278 279 280 280 280 280 279 279 279 280 281 282 284 286 286
318 321 322 323 323 323 324 324 324 324 321 317 314 311 305 301 300 295 288 285 284 283 282 281 281 280 279 279 279 279 281 281 281 280 280 280 279 280 281 282 284 286 285
309 313 317 317 318 319 319 320 319 319 318 314 311 310 307 303 300 298 294 290 287 287 286 284 282 280 280 280 281 280 280 280 281 282 282 281 281 281 281 282 284 285 285
303 307 309 313 314 315 315 314 314 315 314 312 309 307 305 304 302 299 296 294 293 289 288 286 283 281 281 282 283 283 283 282 281 282 283 284 284 283 283 284 285 285 284
298 301 304 307 309 309 309 307 307 308 309 309 306 305 304 302 301 298 297 295 295 294 292 289 285 283 283 284 285 286 285 284 283 282 283 283 284 284 284 284 283 282 283
295 297 299 301 305 306 306 303 302 303 304 304 303 301 300 299 299 297 293 293 293 293 293 290 288 286 285 285 286 287 287 287 285 285 284 283 283 284 285 285 285 284 284
291 294 297 299 301 303 305 304 304 301 300 299 299 298 298 297 295 294 293 292 292 292 292 292 290 288 288 287 287 288 288 288 288 288 287 285 285 285 286 286 285 284 284
287 291 293 295 297 299 301 301 302 301 299 297 295 294 294 295 296 293 291 292 292 291 291 292 292 292 289 287 288 288 288 288 288 288 288 287 286 286 286 286 286 285 285
285 288 290 293 294 297 297 298 298 299 299 297 293 292 292 292 293 294 293 292 292 292 291 291 291 291 290 289 288 288 288 289 289 288 288 287 287 286 286 286 286 285 285
284 285 287 290 293 296 295 296 295 296 296 296 292 291 290 290 289 290 291 291 292 292 292 292 291 290 290 290 290 290 289 289 289 289 288 287 286 286 287 287 287 287 287
283 285 286 287 291 293 293 293 293 293 294 294 291 290 290 290 289 288 288 288 290 291 291 291 292 292 291 290 289 289 289 289 289 289 288 287 286 286 286 287 287 287 287
281 283 285 287 290 292 292 292 291 292 293 296 295 292 292 291 290 289 288 287 289 290 291 291 292 292 291 289 289 289 289 289 289 289 289 288 287 287 286 286 287 287 288
279 281 284 286 289 289 289 291 292 292 293 293 293 291 290 290 291 291 291 290 291 291 291 292 292 292 291 290 289 289 289 288 288 289 289 289 288 287 287 287 287 287 287
277 280 282 286 287 286 287 288 289 289 291 292 290 291 291 290 291 291 291 291 291 291 291 291 292 292 290 289 289 289 288 288 288 289 289 288 288 288 288 288 288 288 287
276 278 280 283 283 284 285 287 288 288 289 290 290 290 291 291 291 291 291 291 291 291 291 291 291 290 290 289 288 288 288 287 288 288 288 288 288 287 287 288 288 288 288
277 278 279 281 281 284 285 286 287 287 288 289 290 290 290 290 291 291 291 291 292 292 291 291 291 290 289 288 288 288 288 287 287 288 288 287 287 287 287 287 287 288 288
278 279 280 281 282 283 284 284 285 287 288 289 290 290 289 289 290 290 289 290 291 291 291 291 290 290 289 288 289 289 288 287 287 288 288 288 288 287 287 287 287 288 289
279 280 280 281 281 281 282 283 285 285 287 288 289 289 289 289 289 289 289 289 289 290 290 289 289 289 288 288 288 289 289 289 288 287 288 288 287 287 287 287 287 288 289
279 278 278 279 280 280 282 283 284 285 286 287 288 288 288 289 289 288 289 289 289 289 289 289 288 288 289 289 289 290 290 289 288 288 288 288 287 287 287 287 287 287 288
277 278 279 280 281 282 282 283 284 285 286 287 288 288 288 288 288 289 289 289 289 289 289 289 289 289 289 289 290 290 289 289 288 288 288 288 288 288 288 288 287 287 287
276 277 279 280 281 281 282 283 284 285 286 287 288 288 288 288 289 289 289 290 290 289 289 289 289 289 289 289 289 289 289 289 289 288 288 288 288 288 288 288 287 287 287
276 277 278 279 281 283 283 284 284 284 286 287 288 288 288 288 288 289 290 291 291 291 292 292 290 289 289 289 289 290 290 290 289 289 289 288 287 288 288 288 287 287 287
276 277 278 280 282 283 285 285 286 286 287 288 289 289 288 289 289 289 290 291 291 291 292 291 291 290 290 290 290 291 291 291 290 290 289 287 287 287 287 287 287 287 287
Height
5906 5904 5901 5899 5897 5895 5893 5891 5889 5888 5886 5884 5883 5882 5880 5879 5878 5878 5877 5876 5876 5875 5875 5875 5874 5874 5873 5873 5872 5872 5871 5871 5870 5869 5868 5867 5866 5865 5864 5862 5861 5860 5859
5905 5903 5901 5898 5896 5894 5892 5890 5888 5886 5884 5882 5881 5879 5878 5876 5875 5874 5873 5873 5872 5871 5871 5870 5869 5869 5868 5867 5867 5866 5865 5865 5864 5863 5862 5860 5859 5858 5857 5856 5855 5853 5852
5904 5901 5899 5897 5895 5893 5891 5888 5886 5884 5882 5880 5878 5876 5875 5873 5872 5871 5870 5869 5868 5867 5866 5865 5864 5863 5863 5862 5861 5860 5859 5858 5857 5857 5856 5854 5853 5851 5850 5849 5848 5846 5844
5902 5900 5898 5896 5894 5891 5889 5887 5884 5882 5879 5877 5875 5873 5871 5870 5868 5866 5865 5864 5863 5862 5861 5860 5859 5858 5857 5856 5855 5854 5853 5852 5851 5849 5848 5847 5846 5844 5843 5842 5840 5839 5837
5900 5898 5896 5893 5891 5889 5886 5884 5882 5879 5877 5874 5872 5870 5868 5866 5864 5862 5861 5859 5858 5857 5856 5855 5854 5853 5851 5850 5849 5848 5847 5845 5844 5842 5841 5840 5838 5837 5835 5834 5832 5831 5829
5897 5895 5893 5891 5888 5886 5884 5881 5878 5876 5873 5871 5869 5866 5864 5862 5860 5858 5856 5855 5853 5852 5850 5849 5848 5847 5845 5844 5843 5841 5840 5838 5836 5835 5833 5832 5830 5829 5828 5826 5824 5823 5821
5893 5891 5889 5887 5885 5882 5880 5877 5875 5872 5869 5867 5864 5862 5860 5857 5855 5854 5851 5849 5847 5846 5844 5843 5841 5840 5838 5837 5836 5834 5832 5831 5829 5828 5826 5825 5823 5821 5819 5817 5816 5815 5813
5889 5887 5885 5882 5880 5877 5875 5872 5870 5867 5864 5862 5859 5857 5855 5852 5850 5848 5846 5844 5842 5840 5838 5837 5835 5833 5832 5830 5828 5827 5825 5823 5822 5820 5819 5817 5815 5813 5811 5809 5808 5806 5804
5883 5881 5879 5877 5874 5872 5870 5867 5864 5862 5859 5857 5854 5851 5849 5846 5844 5842 5840 5838 5836 5834 5832 5830 5828 5827 5825 5823 5821 5819 5817 5816 5814 5812 5810 5809 5807 5805 5803 5801 5799 5797 5795
5877 5875 5873 5870 5868 5866 5864 5861 5858 5855 5853 5850 5848 5845 5843 5840 5838 5836 5833 5831 5829 5827 5825 5823 5821 5819 5817 5815 5813 5812 5810 5808 5806 5804 5802 5800 5798 5796 5794 5792 5790 5788 5786
5870 5868 5866 5863 5861 5859 5856 5854 5851 5849 5846 5843 5841 5838 5835 5833 5831 5829 5827 5825 5823 5820 5818 5816 5814 5812 5809 5807 5806 5804 5802 5800 5798 5796 5793 5791 5789 5787 5785 5782 5780 5778 5776
5862 5860 5858 5856 5853 5850 5848 5846 5843 5841 5838 5835 5833 5830 5828 5826 5823 5821 5819 5817 5815 5813 5811 5809 5807 5804 5802 5800 5798 5795 5793 5791 5789 5786 5784 5782 5780 5777 5775 5773 5770 5768 5766
5853 5852 5849 5847 5845 5842 5839 5837 5835 5832 5830 5827 5824 5822 5820 5818 5816 5814 5811 5809 5807 5805 5803 5800 5798 5796 5793 5791 5789 5786 5784 5781 5779 5776 5774 5772 5769 5767 5765 5763 5760 5758 5755
5844 5842 5840 5838 5836 5833 5831 5828 5826 5824 5821 5818 5815 5813 5811 5808 5807 5805 5803 5801 5798 5796 5794 5791 5789 5786 5784 5781 5779 5776 5774 5771 5769 5766 5764 5761 5759 5756 5754 5752 5750 5747 5745
5834 5832 5830 5828 5826 5824 5821 5819 5816 5814 5812 5809 5807 5804 5802 5799 5797 5795 5793 5791 5789 5787 5784 5782 5779 5777 5774 5771 5769 5766 5763 5761 5758 5756 5753 5751 5748 5746 5744 5741 5739 5736 5734
5824 5822 5820 5817 5815 5813 5811 5809 5806 5805 5802 5800 5797 5795 5793 5790 5788 5785 5783 5781 5778 5776 5774 5771 5769 5766 5763 5761 5758 5755 5753 5750 5748 5745 5743 5740 5737 5735 5732 5730 5727 5725 5723
5812 5811 5809 5807 5805 5803 5801 5799 5796 5795 5792 5790 5788 5785 5783 5781 5778 5776 5773 5771 5768 5766 5763 5761 5758 5755 5753 5750 5748 5745 5742 5740 5737 5734 5732 5729 5726 5724 5721 5719 5716 5714 5711
5801 5799 5798 5796 5794 5792 5790 5788 5786 5784 5782 5780 5778 5775 5773 5770 5768 5765 5763 5760 5758 5755 5752 5749 5747 5744 5741 5739 5736 5734 5731 5728 5726 5723 5720 5718 5715 5712 5710 5708 5705 5703 5700
5789 5788 5786 5785 5783 5781 5779 5777 5775 5773 5771 5769 5767 5765 5763 5760 5757 5755 5752 5749 5747 5744 5741 5739 5736 5733 5730 5727 5725 5722 5720 5717 5714 5711 5709 5706 5704 5701 5698 5696 5694 5691 5688
5778 5776 5775 5773 5771 5769 5768 5766 5764 5762 5760 5758 5756 5754 5751 5749 5746 5743 5741 5738 5736 5733 5730 5727 5724 5722 5719 5716 5713 5711 5708 5705 5702 5700 5697 5695 5692 5689 5687 5684 5682 5680 5677
5765 5764 5762 5761 5759 5758 5756 5755 5753 5751 5749 5747 5745 5742 5740 5737 5734 5732 5729 5726 5724 5721 5718 5715 5713 5710 5707 5704 5702 5699 5696 5693 5690 5688 5685 5683 5680 5678 5675 5673 5670 5668 5666
5754 5752 5751 5749 5748 5747 5745 5743 5741 5739 5737 5735 5733 5730 5728 5725 5722 5720 5717 5715 5712 5709 5706 5703 5701 5698 5695 5692 5689 5686 5684 5681 5678 5676 5673 5671 5668 5666 5663 5661 5659 5657 5654
5743 5741 5740 5738 5737 5735 5734 5732 5730 5727 5725 5723 5720 5718 5715 5713 5710 5708 5705 5702 5700 5697 5694 5692 5689 5686 5683 5680 5677 5674 5672 5669 5666 5663 5661 5659 5656 5654 5652 5650 5647 5645 5643
5731 5730 5729 5728 5726 5724 5722 5721 5718 5716 5714 5712 5709 5706 5704 5701 5699 5696 5694 5691 5688 5685 5683 5680 5677 5674 5671 5668 5665 5662 5659 5656 5654 5651 5649 5647 5645 5642 5640 5638 5636 5634 5632
5721 5720 5718 5717 5715 5713 5711 5709 5707 5705 5703 5700 5698 5695 5693 5690 5688 5685 5683 5680 5677 5674 5671 5668 5665 5662 5659 5656 5653 5651 5648 5645 5642 5640 5638 5635 5633 5631 5629 5627 5625 5623 5621
5711 5709 5708 5707 5705 5703 5701 5699 5696 5694 5692 5689 5687 5684 5682 5679 5677 5674 5671 5668 5666 5663 5659 5656 5653 5650 5647 5644 5641 5639 5636 5633 5631 5628 5626 5624 5622 5620 5618 5616 5614 5612 5610